{"data":{"norad_id":56162,"epoch":"2026-05-24T23:11:23.036640Z","epoch_age_seconds":77812,"freshness":"FRESH","line1":"1 56162U 23050A   26144.96623885  .00000083  00000+0  63609-4 0  9992","line2":"2 56162  81.0011  94.0410 0007255  32.1482 328.0116 13.84954427158934","mean_motion":13.84954427,"eccentricity":0.0007255,"inclination_deg":81.0011,"raan_deg":94.041,"arg_perigee_deg":32.1482,"mean_anomaly_deg":328.0116,"bstar":6.3609e-5,"rev_number":15893,"period_min":103.97454038392,"perigee_km":941.05249232993,"apogee_km":951.68034679171,"semimajor_km":7324.5034195608,"source":"CELESTRAK","updated_at":"2026-05-25T13:37:59.366815Z"}}